DW5890 Weather Reports


Display with metric or nautical units.
time (UTC)temp
F
wind
direction
speed
MPH
gust
MPH
rain 1hr
in
rain 24hr
in
rain mn
in
humidity
%
barometer
mb
20260906214009 82 342 7.0 13.0 0.00 0.00 0.00 62 1013.2
20260906213008 82 9 8.0 14.0 0.00 0.00 0.00 64 1013.4
20260906212508 82 355 7.0 15.0 0.00 0.00 0.00 65 1013.6
20260906212006 81 342 8.0 15.0 0.00 0.00 0.00 66 1013.7
20260906211508 81 331 8.0 12.0 0.00 0.00 0.00 66 1013.7
20260906211004 80 355 5.0 13.0 0.00 0.00 0.00 67 1013.9
20260906210505 80 330 9.0 13.0 0.00 0.00 0.00 68 1014.0
20260906205502 80 24 9.0 14.0 0.00 0.00 0.00 68 1014.2
20260906205004 80 318 9.0 14.0 0.00 0.00 0.00 68 1014.4
20260906204502 80 342 9.0 13.0 0.00 0.00 0.00 69 1014.5
20260906204100 79 318 7.0 13.0 0.00 0.00 0.00 70 1014.6
20260906203101 79 355 5.0 11.0 0.00 0.00 0.00 71 1014.7
20260906202558 79 17 4.0 12.0 0.00 0.00 0.00 72 1014.8
20260906202057 79 344 7.0 11.0 0.00 0.00 0.00 72 1014.8
20260906201607 78 22 4.0 9.0 0.00 0.00 0.00 72 1014.9
20260906201056 78 321 3.0 10.0 0.00 0.00 0.00 73 1015.0
20260906200555 78 346 6.0 10.0 0.00 0.00 0.00 73 1015.1
20260906200055 77 308 2.0 10.0 0.00 0.00 0.00 74 1015.0
20260906195555 77 302 5.0 10.0 0.00 0.00 0.00 74 1015.1
20260906195052 77 9 5.0 10.0 0.00 0.00 0.00 75 1015.1
20260906194552 76 340 4.0 10.0 0.00 0.00 0.00 76 1015.2
20260906194051 76 331 5.0 13.0 0.00 0.00 0.00 77 1015.3
20260906193050 76 315 3.0 11.0 0.00 0.00 0.00 77 1015.3
20260906192548 75 317 4.0 13.0 0.00 0.00 0.00 78 1015.3
20260906192048 75 320 8.0 16.0 0.00 0.00 0.00 78 1015.4
20260906191547 75 315 6.0 11.0 0.00 0.00 0.00 79 1015.5
20260906191047 74 282 5.0 10.0 0.00 0.00 0.00 81 1015.6
20260906190549 74 325 3.0 9.0 0.00 0.00 0.00 80 1015.6
20260906190046 75 346 5.0 9.0 0.00 0.00 0.00 80 1015.6
20260906185547 75 334 6.0 9.0 0.00 0.00 0.00 79 1015.7
20260906185045 75 313 4.0 8.0 0.00 0.00 0.00 81 1015.8
20260906184549 73 329 1.0 8.0 0.00 0.00 0.00 83 1016.0
20260906184042 73 282 3.0 9.0 0.00 0.00 0.00 84 1015.9
20260906183044 72 282 2.0 6.0 0.00 0.00 0.00 85 1016.0
20260906182542 72 341 2.0 4.0 0.00 0.00 0.00 86 1016.1
20260906182041 71 277 0.0 5.0 0.00 0.00 0.00 88 1016.2
20260906181540 71 338 1.0 5.0 0.00 0.00 0.00 88 1016.1
20260906181038 70 338 3.0 5.0 0.00 0.00 0.00 89 1016.2
20260906180538 70 323 3.0 5.0 0.00 0.00 0.00 89 1016.2
20260906180056 70 24 1.0 5.0 0.00 0.00 0.00 90 1016.1
20260906175537 69 40 3.0 5.0 0.00 0.00 0.00 91 1016.2
20260906175034 69 40 0.0 5.0 0.00 0.00 0.00 91 1016.2
20260906174537 69 59 0.0 3.0 0.00 0.00 0.00 92 1016.5
20260906174035 69 59 0.0 5.0 0.00 0.00 0.00 92 1016.6
20260906173031 68 59 3.0 5.0 0.00 0.00 0.00 93 1016.5
20260906172530 68 41 1.0 8.0 0.00 0.00 0.00 94 1016.2
20260906172031 68 40 4.0 8.0 0.00 0.00 0.00 94 1016.1
20260906171529 67 323 2.0 9.0 0.00 0.00 0.00 94 1016.2
20260906171029 67 317 1.0 8.0 0.00 0.00 0.00 94 1016.1
20260906170530 67 334 3.0 9.0 0.00 0.00 0.00 95 1016.2
20260906170028 67 10 4.0 9.0 0.00 0.00 0.00 95 1016.2
20260906165529 67 360 4.0 9.0 0.00 0.00 0.00 95 1016.1
20260906165028 67 323 4.0 11.0 0.00 0.00 0.00 96 1016.1
20260906164529 67 323 8.0 13.0 0.00 0.00 0.00 96 1016.2
20260906164029 67 335 7.0 10.0 0.00 0.00 0.00 96 1016.1
20260906163029 66 310 5.0 9.0 0.00 0.00 0.00 96 1016.2
20260906162529 66 323 5.0 11.0 0.00 0.00 0.00 96 1016.4
20260906162027 67 329 8.0 11.0 0.00 0.00 0.00 96 1016.2
20260906161527 66 313 5.0 10.0 0.00 0.00 0.00 96 1016.2
20260906161026 66 325 5.0 10.0 0.00 0.00 0.00 97 1016.2
20260906160526 66 304 6.0 10.0 0.00 0.00 0.00 97 1016.0
20260906160026 66 294 6.0 10.0 0.00 0.00 0.00 97 1015.8
20260906155528 66 314 7.0 10.0 0.00 0.00 0.00 97 1015.6
20260906155024 66 313 8.0 10.0 0.00 0.00 0.00 97 1015.7
20260906154522 66 322 6.0 10.0 0.00 0.00 0.00 97 1015.8
20260906154021 66 15 3.0 9.0 0.00 0.00 0.00 97 1015.7
20260906153019 66 9 6.0 9.0 0.00 0.00 0.00 97 1015.5
20260906152519 66 30 4.0 9.0 0.00 0.00 0.00 97 1015.6
20260906152019 66 21 5.0 10.0 0.00 0.00 0.00 97 1015.5
20260906151519 66 40 6.0 10.0 0.00 0.00 0.00 97 1015.5
20260906151018 66 35 6.0 9.0 0.00 0.00 0.00 97 1015.3
20260906150519 66 24 5.0 9.0 0.00 0.00 0.00 97 1015.5
20260906150024 66 20 5.0 11.0 0.00 0.00 0.00 97 1015.4
20260906145518 66 26 6.0 12.0 0.00 0.00 0.00 97 1015.4
20260906145019 66 360 9.0 11.0 0.00 0.00 0.00 97 1015.3
20260906144521 66 14 5.0 9.0 0.00 0.00 0.00 96 1015.5
20260906144019 66 26 3.0 9.0 0.00 0.00 0.00 96 1015.7
20260906143028 66 42 5.0 9.0 0.00 0.00 0.00 97 1016.0
20260906142519 66 22 3.0 9.0 0.00 0.00 0.00 97 1015.8
20260906142019 66 355 3.0 10.0 0.00 0.00 0.00 97 1015.6
20260906141518 66 351 5.0 11.0 0.00 0.00 0.00 97 1015.4
20260906141118 66 12 7.0 11.0 0.00 0.00 0.00 97 1015.5
20260906140518 65 14 5.0 9.0 0.00 0.00 0.00 97 1015.4
20260906140029 65 355 5.0 9.0 0.00 0.00 0.00 97 1015.5
20260906135524 65 318 2.0 3.0 0.00 0.00 0.00 97 1015.7
20260906135019 65 318 2.0 3.0 0.00 0.00 0.00 97 1015.8
20260906134518 65 318 0.0 1.0 0.00 0.00 0.00 96 1015.9
20260906134021 65 318 0.0 3.0 0.00 0.00 0.00 96 1016.0
20260906133017 65 318 2.0 8.0 0.00 0.00 0.00 96 1016.0
20260906132517 65 315 5.0 8.0 0.00 0.00 0.00 96 1015.9
20260906132019 65 21 3.0 9.0 0.00 0.00 0.00 96 1016.0
20260906131531 65 347 5.0 11.0 0.00 0.00 0.00 96 1015.7
20260906131017 65 9 6.0 11.0 0.00 0.00 0.00 96 1015.6
20260906130517 65 360 5.0 21.0 0.00 0.00 0.00 97 1015.9
20260906130016 65 32 16.0 21.0 0.00 0.00 0.00 96 1015.1
20260906125516 65 329 13.0 17.0 0.00 0.00 0.00 97 1014.9
20260906125016 65 16 12.0 21.0 0.00 0.00 0.00 96 1014.6
20260906124515 65 46 13.0 24.0 0.00 0.00 0.00 96 1014.5
20260906124016 65 17 18.0 24.0 0.00 0.00 0.00 96 1014.1
20260906123617 65 9 17.0 21.0 0.00 0.00 0.00 96 1014.7
20260906123014 65 14 14.0 19.0 0.00 0.00 0.00 96 1014.9
20260906122513 65 355 11.0 14.0 0.00 0.00 0.00 96 1015.6
20260906122012 65 348 4.0 8.0 0.00 0.00 0.00 96 1016.5
20260906121513 65 311 4.0 5.0 0.00 0.00 0.00 96 1016.7
20260906121012 65 313 3.0 5.0 0.00 0.00 0.00 96 1016.8
20260906120512 65 312 0.0 3.0 0.00 0.00 0.00 96 1017.3
20260906120012 65 312 0.0 3.0 0.00 0.00 0.00 96 1017.3
20260906115513 65 312 1.0 4.0 0.00 0.00 0.00 96 1017.4
20260906115012 65 312 1.0 5.0 0.00 0.00 0.00 96 1017.1
20260906114509 65 313 3.0 9.0 0.00 0.00 0.00 96 1016.6
20260906114008 65 325 5.0 13.0 0.00 0.00 0.00 96 1016.3
20260906113009 65 332 10.0 14.0 0.00 0.00 0.00 96 1015.9
20260906112509 65 321 10.0 14.0 0.00 0.00 0.00 96 1015.8
20260906112009 65 317 9.0 14.0 0.00 0.00 0.00 96 1016.1
20260906111508 65 320 9.0 12.0 0.00 0.00 0.00 96 1015.9
20260906111008 65 297 8.0 12.0 0.00 0.00 0.00 96 1016.1
20260906110509 64 313 6.0 9.0 0.00 0.00 0.00 96 1016.3
20260906110007 64 300 7.0 9.0 0.00 0.00 0.00 96 1016.4
20260906105508 63 290 4.0 8.0 0.00 0.00 0.00 96 1016.4
20260906105007 62 261 2.0 4.0 0.00 0.00 0.00 95 1016.1
20260906104507 62 205 1.0 3.0 0.00 0.00 0.00 95 1016.1
20260906104006 62 205 0.0 3.0 0.00 0.00 0.00 95 1016.0
20260906103005 63 205 1.0 3.0 0.00 0.00 0.00 95 1016.2
20260906102504 63 205 1.0 4.0 0.00 0.00 0.00 95 1016.4
20260906102004 63 205 2.0 4.0 0.00 0.00 0.00 95 1016.2
20260906101503 63 190 2.0 4.0 0.00 0.00 0.00 95 1016.3
20260906101002 64 189 1.0 5.0 0.00 0.00 0.00 95 1016.5
20260906100502 64 184 2.0 5.0 0.00 0.00 0.00 95 1016.5
20260906100001 64 171 4.0 5.0 0.00 0.00 0.00 95 1016.5
20260906095502 64 61 0.0 3.0 0.00 0.00 0.00 95 1016.3
20260906095101 64 61 1.0 3.0 0.00 0.00 0.00 94 1016.2
20260906094604 64 61 2.0 4.0 0.00 0.00 0.00 94 1015.9
20260906094059 64 61 3.0 4.0 0.00 0.00 0.00 95 1015.8
20260906093659 64 32 1.0 3.0 0.00 0.00 0.00 94 1015.7
20260906093059 64 38 1.0 3.0 0.00 0.00 0.00 94 1015.6
20260906092558 64 40 1.0 3.0 0.00 0.00 0.00 94 1015.6
20260906092058 64 35 2.0 3.0 0.00 0.00 0.00 94 1015.4
20260906091603 65 32 1.0 4.0 0.00 0.00 0.00 94 1015.3
20260906091056 65 32 2.0 4.0 0.00 0.00 0.00 94 1015.4
20260906090556 65 32 1.0 5.0 0.00 0.00 0.00 93 1015.6
20260906090059 65 33 3.0 6.0 0.00 0.00 0.00 94 1015.6
20260906085555 65 26 3.0 9.0 0.00 0.00 0.00 93 1015.5
20260906085058 65 23 6.0 10.0 0.00 0.00 0.00 93 1015.5
20260906084555 65 22 4.0 11.0 0.00 0.00 0.00 93 1015.4
20260906084055 66 18 8.0 11.0 0.00 0.00 0.00 93 1015.4
20260906083652 65 11 8.0 11.0 0.00 0.00 0.00 93 1015.3
20260906083054 65 17 7.0 11.0 0.00 0.00 0.00 93 1015.3
20260906082551 66 26 7.0 10.0 0.00 0.00 0.00 93 1015.2
20260906082054 66 20 6.0 10.0 0.00 0.00 0.00 92 1015.3
20260906081550 66 24 7.0 10.0 0.00 0.00 0.00 92 1015.5
20260906081049 66 29 6.0 9.0 0.00 0.00 0.00 92 1015.6
20260906080548 66 32 6.0 9.0 0.00 0.00 0.00 92 1015.7
20260906080050 66 30 6.0 9.0 0.00 0.00 0.00 92 1015.6
20260906075546 67 32 6.0 9.0 0.00 0.00 0.00 92 1015.6
20260906075045 67 34 6.0 11.0 0.00 0.00 0.00 91 1015.9
20260906074545 67 36 6.0 11.0 0.00 0.00 0.00 91 1015.7
20260906074044 67 27 8.0 13.0 0.00 0.00 0.00 91 1015.7
20260906073644 67 24 7.0 10.0 0.00 0.00 0.00 91 1015.9
20260906073045 67 26 7.0 10.0 0.00 0.00 0.00 91 1015.9
20260906072543 67 26 8.0 10.0 0.00 0.00 0.00 91 1015.8
20260906072042 67 23 7.0 11.0 0.00 0.00 0.00 91 1015.8
20260906071556 67 18 9.0 11.0 0.00 0.00 0.00 91 1015.8
20260906071041 67 22 7.0 11.0 0.00 0.00 0.00 91 1015.8
20260906070540 67 29 7.0 11.0 0.00 0.00 0.00 91 1016.0
20260906070040 67 26 7.0 11.0 0.00 0.00 0.00 91 1016.0
20260906065540 67 22 7.0 11.0 0.00 0.00 0.00 90 1016.0
20260906065141 67 21 7.0 10.0 0.00 0.00 0.00 90 1015.9
20260906064539 67 17 7.0 10.0 0.00 0.00 0.00 90 1016.1
20260906064040 67 23 7.0 10.0 0.00 0.00 0.00 90 1016.1
20260906063640 67 22 7.0 9.0 0.00 0.00 0.00 90 1016.1
20260906063040 67 19 7.0 9.0 0.00 0.00 0.00 90 1016.1
20260906062540 67 16 7.0 11.0 0.00 0.00 0.00 89 1016.1
20260906062040 67 23 7.0 11.0 0.00 0.00 0.00 89 1016.1
20260906061540 67 19 7.0 11.0 0.00 0.00 0.00 89 1015.9
20260906061039 67 13 7.0 10.0 0.00 0.00 0.00 89 1016.0
20260906060540 67 9 7.0 10.0 0.00 0.00 0.00 89 1016.0
20260906060040 67 9 7.0 11.0 0.00 0.00 0.00 88 1016.0
20260906055540 68 360 8.0 11.0 0.00 0.00 0.00 88 1016.0
20260906055039 68 9 8.0 10.0 0.00 0.00 0.00 88 1016.0
20260906054538 68 5 7.0 10.0 0.00 0.00 0.00 88 1016.0
20260906054040 68 11 7.0 10.0 0.00 0.00 0.00 87 1015.9
20260906053639 68 342 5.0 9.0 0.00 0.00 0.00 87 1016.1
20260906053039 68 346 4.0 9.0 0.00 0.00 0.00 87 1016.2
20260906052538 68 355 6.0 10.0 0.00 0.00 0.00 87 1016.2
20260906052039 68 338 8.0 10.0 0.00 0.00 0.00 87 1016.1
20260906051537 68 336 7.0 10.0 0.00 0.00 0.00 86 1016.3
20260906051038 68 318 7.0 11.0 0.00 0.00 0.00 86 1016.3
20260906050540 68 325 7.0 11.0 0.00 0.00 0.00 86 1016.2
20260906050042 68 323 7.0 10.0 0.00 0.00 0.00 85 1016.2
20260906045541 68 327 6.0 10.0 0.00 0.00 0.00 85 1016.2
20260906045037 68 326 5.0 8.0 0.00 0.00 0.00 85 1016.5
20260906044537 69 319 4.0 5.0 0.00 0.00 0.00 84 1016.5
20260906044036 69 319 3.0 6.0 0.00 0.00 0.00 84 1016.4
20260906043537 69 331 3.0 5.0 0.00 0.00 0.00 83 1016.5
20260906043040 69 332 3.0 5.0 0.00 0.00 0.00 83 1016.5
20260906042536 69 333 3.0 5.0 0.00 0.00 0.00 82 1016.5
20260906042036 70 334 4.0 5.0 0.00 0.00 0.00 82 1016.4
20260906041536 70 360 3.0 6.0 0.00 0.00 0.00 82 1016.4
20260906041037 70 348 3.0 8.0 0.00 0.00 0.00 81 1016.3
20260906040536 71 5 4.0 9.0 0.00 0.00 0.00 81 1016.6
20260906040039 71 360 6.0 9.0 0.00 0.00 0.00 81 1016.6
20260906035537 71 5 5.0 10.0 0.00 0.00 0.00 80 1016.7
20260906035036 71 360 7.0 10.0 0.00 0.00 0.00 80 1016.7
20260906034543 71 12 7.0 10.0 0.00 0.00 0.00 80 1016.7
20260906034035 71 11 7.0 10.0 0.00 0.00 0.00 79 1016.7
20260906033637 71 11 6.0 10.0 0.00 0.00 0.00 79 1016.7
20260906033036 72 11 6.0 10.0 0.00 0.00 0.00 79 1016.7
20260906032535 72 16 7.0 10.0 0.00 0.00 0.00 78 1016.7
20260906032035 72 33 7.0 10.0 0.00 0.00 0.00 79 1016.7
20260906031536 71 30 6.0 10.0 0.00 0.00 0.00 79 1016.7
20260906031035 71 26 6.0 8.0 0.00 0.00 0.00 80 1016.7
20260906030535 70 26 4.0 8.0 0.00 0.00 0.00 80 1016.5
20260906030034 70 11 4.0 7.0 0.00 0.00 0.00 79 1016.5
20260906025534 70 5 3.0 4.0 0.00 0.00 0.00 79 1016.4
20260906025034 70 9 3.0 4.0 0.00 0.00 0.00 78 1016.3
20260906024533 71 9 3.0 4.0 0.00 0.00 0.00 77 1016.2
20260906024033 71 5 3.0 6.0 0.00 0.00 0.00 77 1016.3
20260906023533 72 9 5.0 8.0 0.00 0.00 0.00 75 1016.2
20260906023032 72 9 5.0 8.0 0.00 0.00 0.00 75 1016.2
20260906022531 73 5 5.0 7.0 0.00 0.00 0.00 74 1016.1
20260906022035 73 9 2.0 5.0 0.00 0.00 0.00 74 1016.0
20260906021531 74 9 3.0 5.0 0.00 0.00 0.00 73 1016.0
20260906021032 74 5 3.0 6.0 0.00 0.00 0.00 73 1016.0
20260906020529 74 9 4.0 8.0 0.00 0.00 0.00 73 1015.9
20260906020029 75 9 6.0 9.0 0.00 0.00 0.00 72 1015.8
20260906015529 75 12 6.0 11.0 0.00 0.00 0.00 72 1015.8
20260906015030 75 9 7.0 11.0 0.00 0.00 0.00 71 1015.6
20260906014540 76 28 8.0 12.0 0.00 0.00 0.00 71 1015.7
20260906014030 76 16 9.0 13.0 0.00 0.00 0.00 70 1015.6
20260906013627 77 360 10.0 14.0 0.00 0.00 0.00 69 1015.6
20260906013028 77 10 11.0 14.0 0.00 0.00 0.00 69 1015.5
20260906012526 77 9 10.0 13.0 0.00 0.00 0.00 69 1015.5
20260906012026 78 360 10.0 16.0 0.00 0.00 0.00 68 1015.2
20260906011536 78 10 11.0 17.0 0.00 0.00 0.00 67 1015.0
20260906011026 79 10 11.0 17.0 0.00 0.00 0.00 66 1014.9
20260906010525 80 360 9.0 14.0 0.00 0.00 0.00 66 1014.8
20260906010026 80 360 11.0 14.0 0.00 0.00 0.00 65 1014.8
20260906005526 81 360 10.0 15.0 0.00 0.00 0.00 65 1014.5
20260906005033 81 355 12.0 15.0 0.00 0.00 0.00 64 1014.5
20260906004535 82 344 9.0 14.0 0.00 0.00 0.00 63 1014.6
20260906004024 82 346 9.0 14.0 0.00 0.00 0.00 63 1014.5
20260906003625 83 355 9.0 15.0 0.00 0.00 0.00 62 1014.5
20260906003038 83 345 10.0 15.0 0.00 0.00 0.00 62 1014.4
20260906002524 83 336 9.0 15.0 0.00 0.00 0.00 61 1014.6
20260906002023 84 351 8.0 15.0 0.00 0.00 0.00 60 1014.4
20260906001526 84 329 8.0 12.0 0.00 0.00 0.00 59 1014.5
20260906001022 84 309 6.0 11.0 0.00 0.00 0.00 59 1014.4
20260906000526 84 343 6.0 12.0 0.00 0.00 0.00 59 1014.4
20260906000022 84 322 8.0 12.0 0.00 0.00 0.00 59 1014.5
20260905235520 84 339 6.0 11.0 0.00 0.00 0.00 59 1014.4
20260905235020 84 319 6.0 11.0 0.00 0.00 0.00 59 1014.4
20260905234518 84 360 8.0 11.0 0.00 0.00 0.00 58 1014.3
20260905234019 84 339 4.0 12.0 0.00 0.00 0.00 59 1014.2
20260905233617 84 326 6.0 12.0 0.00 0.00 0.00 58 1014.3
20260905233019 84 344 7.0 12.0 0.00 0.00 0.00 57 1014.3
20260905232517 84 351 7.0 14.0 0.00 0.00 0.00 57 1014.2
20260905232022 84 348 10.0 14.0 0.00 0.00 0.00 57 1014.1
20260905231517 84 291 9.0 12.0 0.00 0.00 0.00 58 1014.1
20260905231016 84 327 6.0 12.0 0.00 0.00 0.00 58 1014.1
20260905230515 84 302 9.0 13.0 0.00 0.00 0.00 58 1014.2
20260905230017 84 321 4.0 13.0 0.00 0.00 0.00 58 1014.2
20260905225514 84 306 9.0 13.0 0.00 0.00 0.00 57 1014.0
20260905225014 84 302 9.0 13.0 0.00 0.00 0.00 57 1014.0
20260905224524 84 342 8.0 13.0 0.00 0.00 0.00 57 1014.1
20260905224013 84 326 5.0 13.0 0.00 0.00 0.00 58 1014.1
20260905223613 84 324 9.0 15.0 0.00 0.00 0.00 58 1014.1
20260905223014 84 314 10.0 15.0 0.00 0.00 0.00 58 1014.3
20260905222519 84 314 9.0 14.0 0.00 0.00 0.00 58 1014.2
20260905222014 84 306 7.0 11.0 0.00 0.00 0.00 58 1014.2
20260905221513 84 300 7.0 13.0 0.00 0.00 0.00 58 1014.3
20260905221014 83 293 9.0 13.0 0.00 0.00 0.00 59 1014.3
20260905220513 83 313 9.0 14.0 0.00 0.00 0.00 59 1014.3
20260905220016 84 287 7.0 14.0 0.00 0.00 0.00 58 1014.3
20260905215513 84 311 10.0 14.0 0.00 0.00 0.00 58 1014.3
20260905215012 83 317 5.0 13.0 0.00 0.00 0.00 59 1014.3
20260905214512 84 299 9.0 13.0 0.00 0.00 0.00 58 1014.3